Wind_Speed
30 30 28 32 33 35 36 28 34 34 32 32 34 35 37 37 35 41 41 38 37 34 34 36 36 38 39 41 43 43 46 43 41 39 37 38 41 44 42 39 42 42 41 40 37
31 30 28 33 32 35 30 29 28 30 29 29 30 32 35 35 36 35 38 39 35 33 33 34 35 36 37 38 40 42 44 42 36 36 36 39 38 40 43 42 42 42 42 42 43
31 30 30 32 33 32 28 28 26 26 26 26 27 28 30 31 33 34 34 36 34 32 30 30 31 33 35 37 37 37 39 36 36 35 35 36 36 39 40 43 45 46 47 47 45
32 31 30 33 32 30 27 27 23 24 26 23 25 27 28 28 29 29 30 32 36 29 29 30 28 30 32 33 35 38 37 35 36 36 35 33 34 32 37 38 42 46 43 44 46
32 30 30 32 31 29 26 25 21 22 23 23 23 24 25 25 24 26 29 29 35 32 29 31 31 30 31 33 35 37 35 36 35 36 34 34 30 30 32 37 45 49 47 45 46
33 31 30 33 31 27 26 23 22 20 21 21 21 21 22 24 20 22 23 22 26 27 31 32 36 34 32 32 34 36 35 36 35 34 34 34 31 34 32 33 41 47 48 47 45
33 32 30 32 30 26 26 23 22 20 19 19 19 18 19 20 18 16 22 21 20 20 19 24 22 36 40 36 34 33 34 35 34 33 35 35 34 34 27 31 37 44 44 43 41
34 33 31 32 29 27 27 24 20 19 18 18 18 16 18 17 19 18 15 19 26 31 30 27 25 25 26 36 37 36 37 33 34 34 36 36 34 31 31 32 32 39 42 42 40
37 33 30 31 28 27 27 26 22 19 20 18 18 17 17 16 17 18 16 12 12 15 19 24 33 33 27 28 31 32 35 36 37 34 37 39 36 29 30 35 33 37 41 40 42
37 34 31 32 29 28 27 26 24 22 22 21 19 19 18 17 17 17 17 16 15 13 13 16 19 21 27 39 36 33 34 36 36 38 38 40 39 30 30 33 34 36 37 38 41
36 34 32 32 30 29 28 28 26 25 25 24 23 20 20 21 18 20 19 18 18 16 14 14 14 17 25 24 26 39 35 34 34 36 39 41 43 32 33 34 31 28 35 37 39
36 33 33 33 31 31 31 30 28 29 28 27 26 24 24 24 24 22 23 20 21 19 18 16 14 16 19 23 26 25 29 36 32 33 41 40 43 38 32 37 33 31 31 37 38
35 34 34 33 33 33 32 33 31 31 32 31 30 28 27 28 28 27 25 25 24 23 23 22 21 19 18 19 22 25 30 28 34 31 35 42 45 39 34 36 36 32 33 35 40
34 35 36 34 34 34 34 35 34 33 35 35 34 32 30 27 30 30 30 29 28 27 27 27 27 25 23 22 23 22 27 29 30 31 35 40 49 40 35 36 34 34 37 38 39
35 36 37 36 35 35 36 37 37 34 38 38 36 34 34 33 34 36 34 35 34 34 32 32 31 30 28 28 28 27 23 27 30 31 34 34 46 48 39 34 32 37 40 40 39
36 36 36 37 37 38 39 40 40 39 42 40 40 40 38 36 37 38 39 40 38 38 38 36 36 34 34 33 33 32 30 29 27 29 33 28 34 41 36 35 37 36 38 41 41
34 35 35 36 38 39 40 41 41 42 40 41 40 40 40 40 40 41 41 43 43 43 42 41 42 40 39 38 37 37 36 35 35 32 31 30 30 36 29 30 33 35 36 39 40
34 33 35 35 36 37 37 37 36 35 35 35 35 35 37 38 38 40 40 43 44 45 46 47 46 46 44 42 43 41 41 40 40 37 37 35 30 28 27 22 26 34 36 37 38
32 33 34 34 33 34 33 34 33 32 32 34 34 35 37 39 40 42 43 45 45 45 46 48 48 46 45 45 44 45 44 42 44 43 45 42 37 30 30 26 27 32 34 36 36
33 33 34 34 35 34 34 33 34 33 34 35 36 38 39 41 43 45 46 47 48 47 46 48 49 47 46 45 44 44 46 45 46 48 48 47 45 36 35 27 26 27 32 32 37
35 35 35 36 36 36 36 34 35 36 36 38 39 40 41 45 46 48 50 49 50 50 48 48 49 48 48 46 46 45 45 45 48 50 51 51 47 47 41 35 26 29 28 34 33
38 38 38 39 39 38 38 39 38 38 40 41 42 43 45 47 48 51 50 50 49 48 49 50 52 51 49 48 47 46 46 48 50 51 54 57 58 49 46 41 34 28 31 31 36
41 43 42 43 43 42 42 42 41 41 42 42 44 46 48 50 51 51 49 48 48 48 49 49 52 53 52 52 52 51 52 52 52 53 55 57 61 55 55 49 42 35 32 32 35
44 44 46 46 46 45 44 42 43 43 44 44 45 47 49 50 47 47 47 50 50 50 49 50 50 52 52 53 57 58 55 54 56 57 58 59 60 63 60 53 43 42 37 37 40
44 45 45 46 46 44 44 42 41 40 43 45 46 47 48 46 46 47 50 50 50 50 51 52 52 55 54 56 60 61 61 61 63 61 65 56 63 63 63 60 54 44 40 37 39
43 43 45 46 43 43 41 39 39 41 44 45 46 48 46 44 48 49 49 50 50 51 54 56 57 59 58 60 63 66 64 66 64 65 68 65 65 65 66 60 58 53 46 43 40
41 43 44 45 41 40 39 37 37 42 43 43 45 46 44 47 49 50 51 52 52 53 56 57 59 63 64 64 66 70 64 68 70 68 67 70 66 72 68 63 59 55 53 51 47
Wind_Direction
300 298 302 301 298 299 301 310 312 315 316 312 308 304 296 280 276 264 262 260 258 255 254 251 245 243 241 241 242 243 245 248 252 260 258 258 256 254 251 246 244 242 239 240 239
297 297 302 303 298 300 302 310 313 315 310 307 309 310 298 288 274 268 261 259 258 254 250 249 245 243 242 243 243 244 246 249 253 255 255 252 250 248 250 250 248 247 244 238 238
296 295 301 301 298 300 307 311 317 312 309 309 313 315 307 297 279 268 263 259 253 251 247 245 244 242 241 241 243 243 245 248 248 248 248 252 254 251 248 249 253 250 243 240 236
292 294 300 300 298 300 302 309 314 312 310 315 320 320 314 307 285 268 263 260 256 243 245 236 241 243 243 241 242 242 245 246 246 249 250 254 255 254 253 250 243 247 245 243 238
293 294 299 301 298 295 297 305 310 311 311 314 319 324 326 319 296 274 271 268 259 246 240 241 233 234 243 245 245 245 245 247 251 253 255 253 255 257 253 246 242 246 244 242 239
295 294 293 304 297 291 292 299 303 307 308 311 317 323 329 332 314 281 272 269 279 250 242 243 239 233 233 242 245 247 249 250 251 254 255 255 252 254 252 250 241 241 243 243 240
293 294 291 303 294 286 288 294 299 304 303 306 315 320 330 338 339 307 272 261 260 267 270 275 262 251 235 231 236 248 248 250 251 253 255 257 252 254 255 253 245 243 241 240 240
292 292 293 298 290 282 285 289 292 298 300 301 307 317 323 333 346 346 313 279 268 264 261 262 266 272 270 246 240 244 247 251 251 254 254 255 252 256 255 252 247 245 246 239 236
287 289 291 297 288 281 282 284 286 290 292 295 302 309 313 320 328 338 342 332 303 286 276 269 259 257 259 268 261 256 255 256 255 251 254 254 254 256 256 255 255 250 247 243 239
286 287 284 290 284 279 277 279 282 283 285 290 294 302 304 308 314 321 326 332 333 323 307 287 277 273 265 255 260 262 259 256 258 257 253 255 256 255 255 256 257 255 256 248 241
285 284 282 284 279 277 274 275 278 280 282 285 289 291 296 298 299 305 309 310 313 320 321 314 302 279 270 266 266 258 260 260 258 259 255 252 255 250 254 253 256 260 254 253 245
283 282 281 278 276 275 274 274 274 278 277 280 282 285 288 291 295 297 297 297 298 300 303 308 313 301 290 275 267 268 266 263 262 259 258 252 253 253 251 256 258 256 258 250 250
282 280 277 274 273 272 272 272 274 277 279 278 277 279 282 285 288 289 289 289 289 289 289 291 295 297 301 292 278 270 267 266 265 261 260 259 254 254 246 252 258 262 259 254 247
282 278 274 272 271 270 269 271 273 276 278 280 280 284 284 282 279 286 285 283 281 280 282 283 286 287 289 291 289 283 273 270 267 266 261 257 258 254 249 249 254 259 259 257 259
282 277 274 273 272 271 270 270 272 274 276 280 285 286 283 280 280 279 278 277 280 281 279 279 278 278 279 279 281 284 285 276 272 271 264 261 263 257 255 250 258 254 254 256 256
280 277 274 273 272 272 273 273 275 276 277 280 283 283 282 280 278 278 279 279 277 277 276 274 273 273 273 274 275 276 278 278 279 275 272 270 266 264 267 259 254 251 253 255 257
286 283 279 276 274 274 274 274 276 277 280 281 282 281 281 281 280 280 277 276 276 276 273 272 269 270 269 269 269 270 271 274 274 272 277 275 266 267 275 263 252 251 251 252 256
284 282 280 278 277 278 277 277 278 282 282 282 280 279 280 282 281 278 275 274 273 273 272 271 270 267 266 265 265 263 264 266 269 270 271 272 270 273 273 268 252 246 244 247 253
281 279 276 276 276 276 277 277 277 278 278 280 283 284 286 285 283 281 279 277 275 272 269 270 269 268 267 264 263 262 262 260 262 263 265 266 268 270 268 261 255 246 243 243 246
280 278 277 275 274 274 275 275 277 277 280 282 283 284 285 284 283 281 280 280 276 273 269 268 267 266 267 264 262 260 260 258 258 259 262 264 264 265 266 265 254 247 248 244 239
281 278 277 275 274 275 275 275 277 279 279 279 279 279 280 280 279 278 277 276 275 273 270 269 266 266 264 263 261 259 258 257 256 255 257 258 259 260 260 263 262 253 251 242 242
277 277 276 274 274 273 274 275 277 277 278 279 278 277 277 278 276 275 276 276 275 274 273 273 272 268 266 267 264 261 257 254 253 252 252 254 252 253 259 259 260 248 253 247 238
276 278 277 275 276 275 276 277 277 277 276 277 277 277 279 280 281 281 280 279 278 276 275 274 274 274 272 271 268 263 261 260 258 255 251 253 252 252 247 250 249 252 253 243 241
277 281 281 279 279 279 277 277 279 278 279 280 283 283 282 282 282 280 278 278 277 276 274 273 271 270 269 268 271 272 268 262 260 257 255 251 254 252 253 249 244 249 242 248 242
283 284 283 283 283 283 281 283 284 283 284 286 287 285 283 283 280 279 278 279 280 278 277 276 274 272 270 268 267 265 264 263 262 260 258 250 253 256 254 250 245 246 245 245 240
287 287 283 284 286 284 285 287 288 289 289 289 286 285 285 284 279 279 280 279 278 278 279 279 279 276 273 271 268 265 262 261 260 260 261 257 252 253 253 252 245 239 239 237 230
285 281 284 285 288 289 288 287 288 290 291 288 287 286 286 280 281 281 281 281 280 279 280 280 280 280 275 273 270 265 265 264 261 257 255 254 255 256 251 249 247 242 237 236 236
Height
5745 5742 5738 5735 5732 5729 5727 5716 5716 5713 5708 5705 5702 5699 5696 5694 5692 5693 5693 5695 5696 5697 5699 5701 5703 5705 5706 5709 5711 5714 5715 5718 5722 5724 5725 5725 5725 5727 5731 5734 5736 5738 5742 5745 5748
5738 5735 5731 5729 5726 5723 5718 5712 5707 5707 5704 5700 5696 5692 5689 5685 5684 5683 5684 5686 5687 5689 5691 5693 5695 5696 5699 5701 5703 5705 5708 5711 5714 5714 5715 5715 5717 5719 5722 5726 5729 5732 5734 5738 5740
5731 5729 5726 5723 5720 5717 5711 5707 5701 5701 5698 5694 5690 5686 5682 5677 5675 5676 5676 5677 5678 5681 5683 5685 5687 5689 5690 5692 5695 5698 5700 5703 5705 5705 5707 5708 5709 5711 5714 5718 5720 5722 5724 5727 5732
5724 5721 5719 5717 5714 5711 5707 5702 5696 5694 5693 5688 5684 5681 5676 5671 5669 5669 5669 5670 5670 5672 5675 5676 5679 5681 5683 5685 5687 5689 5692 5694 5697 5698 5700 5702 5702 5704 5706 5710 5711 5710 5716 5720 5724
5717 5715 5713 5710 5706 5705 5702 5697 5690 5689 5688 5683 5679 5676 5673 5667 5663 5662 5663 5664 5663 5664 5666 5668 5670 5672 5675 5678 5679 5681 5685 5686 5689 5690 5693 5694 5696 5697 5698 5699 5701 5702 5707 5711 5716
5712 5708 5706 5703 5701 5698 5697 5692 5688 5683 5682 5680 5675 5672 5669 5665 5660 5658 5658 5658 5657 5657 5659 5661 5662 5663 5666 5670 5672 5674 5677 5679 5681 5684 5685 5686 5690 5688 5691 5691 5692 5694 5698 5703 5707
5705 5702 5699 5697 5695 5692 5691 5686 5683 5679 5678 5676 5672 5669 5666 5664 5658 5654 5654 5654 5654 5653 5654 5654 5654 5657 5658 5660 5662 5665 5669 5671 5674 5676 5677 5677 5681 5681 5685 5684 5686 5687 5690 5694 5699
5698 5696 5694 5691 5689 5687 5685 5681 5678 5675 5674 5672 5668 5665 5663 5660 5657 5653 5650 5649 5649 5650 5650 5650 5650 5651 5652 5653 5655 5657 5660 5664 5666 5668 5669 5670 5673 5676 5676 5677 5679 5680 5682 5686 5689
5692 5688 5687 5685 5683 5681 5679 5677 5674 5671 5669 5667 5664 5662 5660 5658 5655 5653 5650 5647 5645 5644 5644 5644 5645 5646 5648 5648 5648 5651 5653 5655 5658 5661 5660 5662 5664 5670 5670 5671 5672 5673 5675 5679 5683
5684 5681 5679 5677 5676 5674 5672 5671 5668 5665 5664 5662 5660 5659 5657 5655 5653 5650 5649 5647 5644 5642 5641 5640 5639 5640 5640 5641 5643 5643 5645 5648 5650 5651 5653 5654 5655 5663 5663 5664 5666 5667 5669 5672 5676
5675 5673 5672 5670 5668 5667 5666 5665 5664 5661 5659 5657 5656 5654 5652 5651 5649 5648 5646 5644 5643 5641 5639 5637 5636 5635 5633 5635 5635 5636 5637 5639 5643 5643 5644 5646 5646 5655 5656 5656 5659 5660 5662 5663 5666
5667 5665 5664 5662 5661 5659 5658 5657 5655 5655 5654 5651 5650 5648 5647 5646 5645 5643 5642 5642 5639 5638 5637 5636 5634 5632 5630 5629 5629 5630 5630 5632 5634 5635 5634 5637 5638 5644 5650 5648 5651 5653 5654 5655 5656
5658 5657 5656 5655 5653 5652 5651 5650 5648 5647 5645 5645 5644 5643 5642 5640 5639 5638 5636 5635 5634 5633 5632 5631 5631 5629 5627 5626 5625 5624 5623 5625 5624 5627 5627 5626 5628 5634 5642 5642 5643 5644 5644 5644 5645
5650 5649 5648 5646 5647 5645 5643 5642 5641 5639 5637 5636 5636 5636 5634 5633 5632 5630 5629 5630 5627 5626 5626 5626 5625 5625 5624 5622 5620 5619 5618 5617 5617 5618 5619 5619 5615 5625 5632 5634 5636 5635 5634 5635 5636
5641 5640 5639 5637 5637 5636 5635 5633 5632 5632 5628 5627 5627 5626 5626 5626 5624 5623 5622 5621 5620 5620 5619 5618 5618 5618 5618 5616 5614 5614 5613 5611 5610 5609 5609 5613 5608 5613 5621 5626 5625 5624 5624 5625 5628
5632 5631 5629 5629 5627 5626 5625 5624 5624 5624 5619 5619 5617 5616 5616 5615 5614 5613 5613 5611 5611 5610 5609 5610 5608 5609 5609 5609 5608 5607 5606 5605 5603 5602 5601 5605 5604 5602 5609 5614 5613 5615 5615 5616 5617
5624 5622 5621 5619 5619 5617 5615 5615 5615 5611 5611 5610 5607 5606 5605 5604 5603 5603 5602 5600 5600 5599 5599 5599 5599 5599 5599 5599 5599 5598 5598 5597 5596 5596 5595 5594 5596 5596 5599 5600 5604 5605 5606 5607 5608
5615 5613 5611 5609 5607 5606 5605 5605 5603 5602 5600 5599 5597 5596 5595 5594 5593 5592 5591 5589 5589 5588 5586 5586 5587 5587 5589 5589 5588 5588 5588 5588 5586 5587 5587 5586 5589 5592 5589 5591 5592 5594 5597 5598 5601
5605 5603 5602 5599 5598 5597 5596 5595 5593 5592 5591 5589 5587 5586 5586 5584 5583 5582 5581 5579 5578 5577 5576 5573 5573 5574 5576 5575 5576 5576 5576 5577 5575 5577 5575 5579 5581 5584 5580 5582 5583 5586 5588 5589 5592
5595 5593 5593 5591 5588 5587 5586 5585 5584 5581 5580 5578 5577 5577 5575 5574 5572 5570 5568 5569 5566 5565 5562 5560 5560 5562 5562 5563 5563 5562 5564 5564 5564 5565 5565 5568 5569 5574 5571 5573 5576 5577 5578 5579 5583
5586 5584 5582 5580 5578 5577 5576 5574 5573 5571 5570 5568 5566 5564 5564 5562 5560 5557 5555 5553 5551 5550 5549 5548 5547 5551 5550 5550 5549 5550 5550 5550 5550 5553 5553 5556 5559 5558 5563 5565 5568 5568 5569 5571 5574
5576 5574 5572 5570 5569 5566 5565 5563 5562 5559 5558 5556 5555 5552 5551 5549 5547 5543 5540 5538 5538 5536 5535 5534 5532 5534 5537 5537 5537 5537 5536 5535 5534 5540 5539 5539 5542 5548 5552 5555 5558 5560 5561 5563 5565
5565 5564 5562 5559 5557 5555 5553 5552 5550 5547 5545 5544 5541 5539 5538 5536 5532 5531 5528 5527 5525 5523 5521 5521 5518 5519 5522 5522 5519 5522 5521 5522 5524 5523 5526 5525 5530 5537 5535 5542 5547 5550 5552 5553 5555
5555 5554 5551 5548 5546 5543 5541 5539 5537 5535 5533 5531 5528 5525 5523 5521 5518 5516 5513 5512 5511 5509 5508 5506 5507 5506 5508 5507 5503 5504 5506 5508 5506 5507 5509 5511 5517 5515 5523 5530 5536 5537 5541 5542 5545
5544 5542 5539 5536 5533 5531 5528 5526 5524 5522 5520 5517 5515 5510 5508 5507 5504 5501 5498 5496 5496 5494 5492 5490 5491 5488 5491 5491 5486 5487 5489 5489 5488 5493 5487 5505 5494 5500 5505 5510 5519 5525 5528 5531 5532
5534 5532 5528 5525 5522 5519 5515 5513 5511 5509 5508 5504 5501 5497 5495 5494 5488 5487 5485 5483 5482 5479 5475 5472 5472 5469 5474 5470 5465 5465 5471 5471 5475 5476 5474 5480 5479 5481 5484 5493 5502 5511 5514 5518 5521
5522 5518 5516 5514 5510 5508 5504 5502 5499 5496 5496 5491 5488 5485 5481 5476 5475 5472 5469 5467 5466 5463 5460 5457 5454 5448 5450 5446 5441 5444 5456 5451 5451 5456 5456 5457 5467 5459 5466 5474 5484 5492 5499 5504 5509